Regional Weather Roundup
Issued by NWS

Current Version | Previous Version | Text Only | Print | Product List | Glossary On
Versions: 1 2 3 4 5 6 7 8 9 10 11 12 13 14 15 16 17 18 19 20 21 22 23 24 25 26 27 28 29 30 31 32 33 34 35 36 37 38 39 40 41 42 43 44 45 46 47 48 49 50
218
ASUS46 KPQR 230610
RWROR

OREGON REGIONAL WEATHER ROUNDUP
NATIONAL WEATHER SERVICE PORTLAND OR
1100 PM PDT FRI SEP 22 2017

NOTE: "FAIR" INDICATES FEW OR NO CLOUDS BELOW 12,000 FEET WITH
NO SIGNIFICANT WEATHER AND/OR OBSTRUCTIONS TO VISIBILITY.

ORZ001>013-230700-
NORTHWEST OREGON


CITY           SKY/WX    TMP DP  RH WIND       PRES   REMARKS
ASTORIA        MOCLDY    54  51  90 S3        30.06F
6HR MIN TEMP:  53; 6HR MAX TEMP:  61;

NEWPORT        PTCLDY    50  50 100 CALM      30.11S
PORTLAND       CLOUDY    56  53  90 E5        30.06S
6HR MIN TEMP:  56; 6HR MAX TEMP:  68;

VANCOUVER WA   CLOUDY    55  51  86 CALM      30.05S
6HR MIN TEMP:  55; 6HR MAX TEMP:  69;

SCAPPOOSE      PTCLDY    51  49  92 CALM      30.06R
6HR MIN TEMP:  51; 6HR MAX TEMP:  69;

HILLSBORO      MOCLDY    54  50  86 N6        30.06R
6HR MIN TEMP:  54; 6HR MAX TEMP:  68;

AURORA         CLOUDY    57  51  80 CALM      30.07R
6HR MIN TEMP:  57; 6HR MAX TEMP:  69;

MCMINNVILLE    MOCLDY    56  51  84 W5        30.06S
6HR MIN TEMP:  56; 6HR MAX TEMP:  66;

SALEM          MOCLDY    54  48  80 S3        30.06R
6HR MIN TEMP:  54; 6HR MAX TEMP:  68;

CORVALLIS      PTCLDY    53  49  86 S3        30.08R
EUGENE         PTCLDY    49  48  97 S6        30.08R
6HR MIN TEMP:  49; 6HR MAX TEMP:  67;

$$

ORZ021-028-230700-
SOUTHWEST OREGON


CITY           SKY/WX    TMP DP  RH WIND       PRES   REMARKS
NORTH BEND     PTCLDY    51  50  96 SE5       30.10R
6HR MIN TEMP:  51; 6HR MAX TEMP:  61;

BROOKINGS      CLEAR     63  41  44 NE10G21   29.99S
ROSEBURG       CLEAR     51  44  77 CALM      30.07R
6HR MIN TEMP:  51; 6HR MAX TEMP:  67;

SEXTON SUMMIT  CLEAR     43  38  82 N10       30.06R
6HR MIN TEMP:  42; 6HR MAX TEMP:  51;

GRANTS PASS    FAIR      50  41  71 CALM      30.09R
MEDFORD        CLEAR     54  43  66 S5        30.04R
6HR MIN TEMP:  54; 6HR MAX TEMP:  69;

$$

ORZ014>016-041-230700-
COLUMBIA GORGE


CITY           SKY/WX    TMP DP  RH WIND       PRES   REMARKS
TROUTDALE      CLOUDY    55  51  86 E3        30.06R
6HR MIN TEMP:  54; 6HR MAX TEMP:  65;

THE DALLES     CLOUDY    59  48  67 NW12      30.03R
6HR MIN TEMP:  59; 6HR MAX TEMP:  65;

$$

ORZ029>031-041-044-049-050-061>064-502-503-505>511-230700-
EASTERN OREGON


CITY           SKY/WX    TMP DP  RH WIND       PRES   REMARKS
MADRAS         CLOUDY    50  50 100 NW6       30.07S
REDMOND        CLOUDY    48  36  63 SE3       30.06R
6HR MIN TEMP:  47; 6HR MAX TEMP:  57;

BEND           MOCLDY    48  37  66 W3        30.07S
PRINEVILLE     CLOUDY    45  37  76 CALM      30.07R
KLAMATH FALLS  CLEAR     40  28  62 NE3       30.05R
6HR MIN TEMP:  37; 6HR MAX TEMP:  56;

LAKEVIEW       CLEAR     39  30  70 N10       30.05R WCI  32
HERMISTON      PTCLDY    49  44  83 SE6       30.02S
6HR MIN TEMP:  49; 6HR MAX TEMP:  67;

PENDLETON      PTCLDY    47  40  76 SE9       30.03S
6HR MIN TEMP:  46; 6HR MAX TEMP:  61;

JOHN DAY       CLEAR     41  35  78 CALM      30.05S
MEACHAM        PTCLDY    31  29  92 CALM      30.05R
6HR MIN TEMP:  31; 6HR MAX TEMP:  49;

LA GRANDE      CLEAR     39  39 100 CALM      30.05F
6HR MIN TEMP:  39; 6HR MAX TEMP:  49; 6HR PCP:  0.06;

BAKER CITY     MOCLDY    43  37  79 CALM      30.04S
6HR MIN TEMP:  43; 6HR MAX TEMP:  57; 6HR PCP: TRACE;

BURNS          CLEAR     34  30  85 W8        30.04S WCI  27
6HR MIN TEMP:  34; 6HR MAX TEMP:  49;

ROME             N/A     44  36  73 CALM      30.01S
6HR MIN TEMP:  43; 6HR MAX TEMP:  53;

ONTARIO        NOT AVBL
$$




USA.gov is the U.S. government's official web portal to all federal, state and local government web resources and services.